Regional Weather Roundup
Issued by NWS

Home | Current Version | Previous Version | Graphics & Text | Print | Product List | Glossary On
Versions: 1 2 3 4 5 6 7 8 9 10 11 12 13 14 15 16 17 18 19 20 21 22 23 24 25 26 27 28 29 30 31 32 33 34 35 36 37 38 39 40 41 42 43 44 45 46 47 48 49 50
000
ASUS43 KLSX 290859
RWRMO

WEATHER SUMMARY FOR MISSOURI
NATIONAL WEATHER SERVICE SPRINGFIELD MO
400 AM CDT MON MAY 29 2017

NOTE: "FAIR" INDICATES FEW OR NO CLOUDS BELOW 12,000 FEET WITH NO
       SIGNIFICANT WEATHER AND/OR OBSTRUCTIONS TO VISIBILITY.
       CURRENT SKY AND/OR WEATHER CONDITIONS ARE NOT AVAILABLE FOR
       CHILLICOTHE AND FARMINGTON.

MOZ001>031-035>038-043-044-053-054-291000-
...NORTHERN AND WESTERN MISSOURI...

CITY           SKY/WX    TMP DP  RH WIND       PRES   REMARKS
KANSAS CTY INT CLEAR     55  51  86 S9        29.94F
KANSAS C DTWN  PTCLDY    61  55  81 SW6       29.94S
LEE`S SUMMIT     N/A     59  52  77 SW5       29.95F
ST JOSEPH      PTCLDY    56  53  90 S3        29.93F
CHILLICOTHE      N/A     53  49  86 CALM      29.93S
KIRKSVILLE     CLEAR     56  47  71 SW7       29.91S

$$
MOZ066>068-077>081-088>096-101>105-291000-
...SOUTHWEST MISSOURI...

CITY           SKY/WX    TMP DP  RH WIND       PRES   REMARKS
SPRINGFIELD    CLEAR     61  56  83 SW9       29.99F
JOPLIN         CLOUDY    61  57  87 S8        30.00S

$$
MOZ032>034-039>042-045>050-055>058-069>072-291000-
...CENTRAL MISSOURI...

CITY           SKY/WX    TMP DP  RH WIND       PRES   REMARKS
COLUMBIA       CLEAR     60  53  77 W5        29.94R
JEFFERSON CITY CLEAR     62  56  80 N3        29.93S
ROLLA          CLOUDY    57  55  93 SW9       29.94S
SEDALIA        CLEAR     60  54  80 SW3       29.96S
WARRENSBURG    CLEAR     54  52  94 S3        29.95S
OSAGE BEACH    CLEAR     55  54  96 CALM      29.97R

$$
MOZ051-052-059>065-291000-
...EAST CENTRAL MISSOURI...

CITY           SKY/WX    TMP DP  RH WIND       PRES   REMARKS
ST LOUIS INTL  PTCLDY    66  55  67 W8        29.91S
SPIRIT OF STL  CLEAR     63  57  81 SW9       29.90S
ST CHARLES     PTCLDY    58  57  97 CALM      29.89S

$$
MOZ072>076-082>087-097>100-106>115-291000-
...SOUTH CENTRAL AND SOUTHEAST MISSOURI...

CITY           SKY/WX    TMP DP  RH WIND       PRES   REMARKS
CAPE GIRARDEAU CLOUDY    60  58  92 W3        29.94S
FARMINGTON     CLOUDY    56  54  93 CALM      29.97R
POPLAR BLUFF   CLOUDY    63  59  87 W6        29.95S
WEST PLAINS    CLOUDY    60  55  83 W7        30.01R

$$




USA.gov is the U.S. government's official web portal to all federal, state and local government web resources and services.